COSMOS 1275 DEB, 12696

Orbit data source: Space-Track

COSMOS 1275 DEB, 12696 is space debris in LEO originally from a launch on Thu, 04 Jun 1981 UTC launched from the Plesetsk Missile And Space Complex (PKMTR). Debris objects in space refer to the collection of defunct objects orbiting the Earth. Examples of debris include non-operational satellites, rocket bodies, and fragments generated from explosions, collisions, or faulty payload assembly.

Loading next visibility...
Identifier
12696, 1981-053AQ
Orbit
LEO
Country
Flag of CISCIS
Related business
Manufacturer
Unknown
Mission
Spacecraft
Bus & Motor
Unknown
Mass
Unknown
Launch date (UTC)
1981-06-04 (44 years ago)
Launch vehicle
Unknown
Launch site
Plesetsk Missile And Space Complex (PKMTR)
Object type
Payload
Rocket body
Debris
Shape & HBR
Unknown shape, 0.2 m
Radar Cross Section
Small (<0.1 m²)

Expand to show TLE details & history
Last TLE update: 16 hours ago

TLE from 16 hours ago
0 COSMOS 1275 DEB
1 12696U 81053AQ  25291.18622138  .00000650  00000-0  88553-3 0  9994
2 12696  83.0706  77.0239 0148975 149.7213  23.0466 13.53091484174932
Epoch: 2025-10-18T04:28Z
TLE epoch observation values (Epoch: 2025-10-18T04:28:09.527Z)
Latitude
6.42884°
Longitude
162.28281°
Altitude
961.435 km
Speed
7.422 km/s
True Right ascension
17h 04m 58s
True Declination
6° 23' 30"
Sunlit
Object was in daylight at epoch
Visualization orbit readout
Latitude
Unknown
Longitude
Unknown
Altitude
Unknown
Speed
Unknown
Apparent Right ascension
Unknown
Apparent Declination
Unknown
Sunlit
N/A
Visualization observer readout
Local Sidereal Time
15:02:21
Azimuth
Unknown
Elevation
Unknown
Doppler factor
Unknown
Orbital elements
Apogee altitude
1,168.861 km
Perigee altitude
947.298 km
Semi-major axis
7,436.217 km
Eccentricity
0.0149
Inclination
83.0706°
RAAN
77.0239°
Arg. of periapsis
149.7213°
True anomaly
23.72653°
Mean anomaly
23.0466°
Eccentric anomaly
23.38539°
Mean motion
3.38466 °/min
Orbital period
106.36 mins
BSTAR
0.00088553
Loading maneuver chart data...
Computing Atmospheric mass density...

Documentation

Showing up to 5 results
|